Home > Weather > Novorossiysk > Past weeks

Flag for Russia Weather for the Past 2 Weeks in Novorossiysk, Russia

Now
52 °F

Cool.


Feels Like: 51 °F
Forecast: 49 / 68 °F
Wind: 3 mph from Southeast

Location: Anapa / Vitiazevo

Current Time: May 4, 2016 at 10:17:50 PM

Latest Report: May 4, 2016 at 9:30 PM


Visibility: 5 mi

Pressure: 29.74 "Hg

Humidity: 94%

Dew Point: 50 °F

Location of NovorossiyskLocation

Historic Weather in Novorossiysk — Graph

°F

Novorossiysk Temperature Yesterday

Maximum temperature yesterday: 73 °F (at 2:30 PM)
Minimum temperature yesterday: 43 °F (at 2:00 AM)
Average temperature yesterday: 61 °F

High & Low Weather Summary for the Past Weeks

 TemperatureHumidityPressure
High75 °F (Apr 24, 12:30 PM)100% (Apr 23, 6:30 AM)30.27 "Hg (Apr 23, 6:30 AM)
Low36 °F (Apr 23, 4:30 AM)27% (Apr 24, 1:00 PM)29.33 "Hg (Apr 25, 8:00 AM)
Average57 °F70%29.90 "Hg
* Reported Apr 19 9:00 PM — May 4 9:00 PM, Novorossiysk, Weather by CustomWeather, © 2016

Note: Actual official high and low records may vary slightly from our data, if they occured in-between our weather recording intervals... More about our weather records

Advertising

Novorossiysk Weather History for the Previous 24 Hours

Scroll right to see more
 ConditionsComfort  
Time TempWeatherWind HumidityBarometerVisibility
9:00 PM
Wed, May 4
52 °FCool.1 mph94%29.74 "Hg4 mi
8:30 PM55 °FCool.1 mph94%29.71 "Hg4 mi
8:00 PM57 °FCool.3 mph88%29.71 "Hg3 mi
7:30 PM57 °FPartly sunny.3 mph88%29.68 "HgN/A
7:00 PM59 °FPartly sunny.1 mph88%29.68 "HgN/A
6:30 PM59 °FPartly sunny.3 mph88%29.68 "HgN/A
6:00 PM59 °FPartly sunny.3 mph88%29.68 "HgN/A
5:30 PM59 °FPartly sunny.6 mph88%29.68 "HgN/A
5:00 PM59 °FPartly sunny.8 mph88%29.65 "HgN/A
4:30 PM64 °FPassing clouds.6 mph73%29.65 "HgN/A
4:00 PM66 °FSunny.1 mph68%29.65 "Hg10 mi
3:30 PM64 °FScattered clouds.1 mph73%29.65 "HgN/A
2:00 PM59 °FPartly sunny.13 mph77%29.62 "HgN/A
1:30 PM61 °FPartly sunny.15 mph77%29.62 "HgN/A
1:00 PM57 °FScattered clouds.17 mph77%29.62 "HgN/A
12:30 PM59 °FSunny.20 mph72%29.62 "Hg10 mi
12:00 PM59 °FSunny.15 mph77%29.62 "Hg10 mi
11:00 AM55 °FSunny.15 mph77%29.62 "Hg10 mi
10:30 AM54 °FPassing clouds.13 mph82%29.62 "HgN/A
10:00 AM52 °FPassing clouds.15 mph88%29.59 "HgN/A
9:00 AM52 °FLight rain. Cloudy.15 mph82%29.59 "Hg5 mi
8:30 AM52 °FLight rain. Cloudy.20 mph82%29.56 "HgN/A
8:00 AM54 °FPassing clouds.17 mph72%29.56 "HgN/A
7:30 AM54 °FCool.22 mph72%29.56 "HgN/A
7:00 AM54 °FCool.22 mph72%29.56 "HgN/A
6:30 AM54 °FCool.22 mph72%29.56 "HgN/A
6:00 AM54 °FSprinkles. Cloudy.22 mph72%29.59 "HgN/A
5:30 AM55 °FCool.24 mph67%29.59 "HgN/A
5:00 AM55 °FCool.24 mph67%29.59 "HgN/A
4:30 AM55 °FCool.29 mph63%29.59 "HgN/A
4:00 AM55 °FCool.24 mph63%29.59 "HgN/A
3:30 AM55 °FCool.24 mph63%29.59 "HgN/A
3:00 AM55 °FCool.24 mph63%29.62 "HgN/A
2:30 AM55 °FCool.26 mph63%29.59 "HgN/A
2:00 AM55 °FCool.29 mph63%29.62 "HgN/A
1:30 AM55 °FCool.29 mph63%29.59 "HgN/A
1:00 AM55 °FRefreshingly cool.29 mph59%29.62 "HgN/A
12:30 AM57 °FRefreshingly cool.31 mph55%29.62 "HgN/A
12:00 AM57 °FRefreshingly cool.29 mph55%29.62 "Hg6 mi
11:30 PM
Tue, May 3
57 °FRefreshingly cool.29 mph59%29.65 "HgN/A
11:00 PM57 °FRefreshingly cool.29 mph59%29.65 "Hg6 mi
10:30 PM59 °FRefreshingly cool.24 mph55%29.68 "Hg6 mi
10:00 PM59 °FRefreshingly cool.22 mph55%29.71 "Hg6 mi
Weather by CustomWeather, © 2016

See weather overviewHow to use our weather pages